Retour au catalogue

ATLAS 5 CENTAUR DEB

LostHEO
NORAD 49368·DEBRIS·🇺🇸 United States

Lancé Oct 17, 2018 depuis Cape Canaveral Space Force Station

Loading…

Prochains Passages (prochaines 24 heures)

TLE

PériméSource: Space-Track

Époque: Jun 10, 2025, 21:41 UTC

1 49368U 18079FV  25161.90368572 -.00000093  00000-0  00000-0 0  9993
2 49368  12.1789  88.5109 4344838 210.0375 115.6332  1.77099486  7541

Suivez ATLAS 5 CENTAUR DEB en temps réel avec AllMySat

Download on the App Store